Vorticity
1 10 8 10 11 7 8 9 14 10 7 4 5 4 3 4 4 5 8 10 7 3 6 7 10 6 8 7 5 7 6 5 5 5 5 6 5 7 4 3 4 3 3
4 1 4 8 10 12 7 5 5 8 13 6 5 4 3 8 4 1 7 9 12 5 7 9 7 8 9 6 8 4 6 6 6 6 5 5 6 4 3 4 2 3 4
5 11 -3 7 7 11 9 7 8 7 9 11 10 10 8 7 4 12 9 8 10 8 8 7 9 7 7 7 5 7 5 6 5 6 6 6 4 4 4 5 6 5 5
10 11 8 18 13 13 12 8 8 8 8 9 9 10 11 6 -1 12 12 8 10 9 6 8 9 7 7 7 7 6 6 6 6 6 5 5 5 5 5 5 5 3 8
10 9 2 16 -2 11 15 9 9 6 7 8 10 10 2 13 6 4 6 6 7 8 6 8 8 7 8 7 10 6 7 5 5 5 5 3 4 6 6 3 4 4 4
14 14 6 15 4 4 18 -15 11 10 7 7 5 8 7 4 9 3 7 5 8 8 7 6 8 7 7 7 7 8 10 8 6 7 7 7 4 4 4 3 6 6 3
14 13 22 17 9 26 72 14 15 8 8 7 8 11 8 3 4 4 10 8 5 7 7 7 8 7 5 7 8 8 8 8 8 6 3 -0 5 3 4 3 4 4 5
10 13 13 14 14 -3 10 6 2 8 -20 10 6 5 12 11 9 9 8 4 7 5 5 6 10 9 7 5 3 4 7 10 9 6 5 4 4 6 5 6 6 4 5
8 9 15 14 12 23 -1 28 5 -4 7 11 1 5 7 6 7 6 8 8 7 9 6 5 8 7 8 8 7 5 3 5 5 5 5 5 4 5 5 5 3 3 6
7 7 10 14 15 12 20 7 27 14 28 39 29 7 4 12 0 5 2 9 5 8 9 6 5 7 6 5 6 7 8 6 4 5 6 8 7 4 5 5 6 8 5
8 7 6 8 13 11 14 14 14 10 20 31 8 1 8 13 8 6 6 2 15 7 6 4 5 6 6 6 4 7 7 8 8 6 5 7 8 6 5 6 3 3 8
6 8 6 7 7 11 14 12 9 14 15 9 12 35 -15 40 18 30 9 8 12 9 14 6 9 5 6 5 5 7 5 6 1 -5 11 9 9 18 28 26 20 12 10
9 9 7 6 7 10 11 12 13 9 6 11 11 10 14 1 13 -2 31 1 38 46 24 8 3 11 8 5 1 -6 27 17 11 14 13 -3 7 6 3 6 -1 1 6
14 17 11 8 6 10 11 10 11 13 14 9 6 7 7 7 11 12 8 13 19 20 40 11 12 14 -3 -4 -1 -1 9 3 23 38 -13 42 -8 40 -5 -20 3 22 10
15 10 19 10 8 8 9 8 8 9 9 11 13 14 13 10 10 10 8 9 12 10 7 6 11 18 21 19 17 5 15 17 10 -5 4 7 23 18 9 49 16 -23 35
12 21 16 13 10 10 9 8 8 8 8 7 6 5 5 6 7 8 9 10 10 11 11 11 11 9 7 10 16 19 15 9 15 12 49 6 51 7 -0 -6 -11 44 2
11 15 16 16 11 10 11 10 10 9 10 10 10 10 9 9 8 7 7 7 6 6 8 11 12 14 11 11 8 10 13 12 18 12 10 21 -3 -25 13 18 26 5 7
11 14 14 13 13 11 10 9 9 8 7 6 7 7 7 8 8 6 7 7 7 7 7 7 8 9 11 14 12 8 9 8 11 11 16 21 17 26 35 32 31 8 30
16 14 13 12 12 12 11 12 12 12 12 11 11 11 11 12 14 16 14 13 13 13 13 12 10 11 13 10 13 15 18 11 9 24 18 60 39 36 41 26 33 49 4
11 9 11 12 11 10 9 10 11 10 7 8 8 8 9 8 9 8 11 16 20 21 18 17 15 12 15 18 18 18 19 17 4 9 -2 1 2 -6 10 43 26 4 0
7 10 13 16 15 12 9 5 8 20 26 29 28 27 23 18 16 14 20 23 19 12 15 22 27 22 21 20 15 19 15 7 5 7 4 53 31 32 15 15 8 1 4
11 20 15 15 10 5 3 5 21 21 20 17 27 42 33 20 14 14 19 19 11 16 16 11 21 22 18 4 12 12 18 18 18 29 27 8 11 6 6 11 9 9 10
17 13 16 1 11 11 5 11 8 14 24 12 3 4 13 28 33 18 12 12 8 10 9 10 19 -1 -4 23 15 6 19 17 11 12 6 6 7 7 8 8 9 10 11
15 10 15 18 14 18 19 17 11 8 9 13 18 20 18 20 19 20 21 17 13 11 12 15 8 10 7 15 26 25 10 6 17 11 10 12 10 10 12 12 14 17 11
12 19 12 6 6 6 6 6 10 20 20 15 13 14 18 22 18 17 20 25 28 25 22 19 19 16 15 18 16 10 9 12 8 8 10 12 15 16 17 12 11 11 11
14 4 6 7 10 10 11 9 8 8 7 6 6 7 7 9 9 11 17 20 17 13 18 24 23 20 10 14 19 18 18 17 16 14 13 15 15 12 11 11 12 13 13
Height
5875 5877 5879 5879 5881 5885 5888 5892 5897 5899 5900 5901 5902 5904 5905 5906 5909 5911 5914 5916 5915 5916 5916 5917 5918 5920 5921 5922 5923 5925 5924 5925 5926 5927 5927 5927 5926 5926 5926 5925 5924 5924 5923
5870 5873 5875 5877 5878 5881 5883 5886 5890 5894 5896 5898 5902 5904 5903 5904 5905 5906 5908 5911 5913 5915 5915 5915 5915 5917 5917 5918 5919 5921 5922 5922 5923 5924 5924 5924 5923 5923 5923 5922 5921 5920 5920
5866 5868 5870 5872 5874 5876 5878 5880 5883 5888 5891 5894 5897 5902 5903 5902 5903 5904 5905 5905 5908 5909 5911 5912 5912 5913 5914 5915 5916 5917 5918 5919 5921 5921 5922 5921 5921 5920 5920 5919 5918 5917 5916
5861 5863 5864 5867 5869 5871 5874 5876 5879 5881 5884 5888 5892 5893 5896 5899 5900 5901 5901 5902 5903 5905 5907 5909 5909 5909 5910 5911 5912 5913 5914 5915 5916 5917 5917 5917 5917 5917 5916 5915 5913 5912 5910
5857 5858 5858 5860 5862 5865 5868 5871 5873 5875 5877 5881 5885 5888 5889 5892 5895 5896 5897 5898 5899 5900 5902 5902 5903 5904 5906 5906 5907 5908 5910 5910 5911 5912 5912 5912 5912 5911 5910 5909 5908 5906 5905
5851 5851 5853 5854 5856 5856 5859 5864 5868 5869 5871 5874 5878 5882 5884 5886 5888 5890 5891 5892 5894 5896 5897 5897 5897 5898 5900 5901 5902 5901 5903 5904 5905 5906 5906 5906 5906 5905 5904 5903 5901 5899 5898
5847 5847 5848 5849 5848 5846 5843 5854 5860 5863 5865 5868 5871 5875 5878 5879 5880 5882 5884 5886 5887 5889 5890 5891 5892 5892 5893 5895 5896 5896 5897 5898 5898 5898 5899 5898 5898 5896 5895 5894 5893 5892 5890
5842 5842 5843 5843 5843 5843 5845 5848 5852 5855 5858 5861 5863 5866 5870 5871 5871 5873 5874 5877 5879 5881 5883 5884 5886 5886 5887 5888 5888 5890 5890 5890 5891 5892 5892 5890 5889 5888 5887 5887 5885 5883 5882
5837 5837 5838 5838 5839 5839 5841 5843 5844 5847 5849 5851 5853 5857 5861 5863 5863 5864 5866 5870 5872 5874 5874 5875 5878 5879 5879 5880 5881 5881 5882 5882 5882 5883 5882 5880 5879 5878 5877 5877 5875 5874 5872
5834 5834 5834 5834 5835 5835 5835 5836 5837 5838 5838 5840 5845 5848 5851 5854 5853 5854 5856 5859 5863 5864 5863 5866 5867 5868 5869 5870 5870 5871 5873 5873 5871 5871 5871 5871 5869 5868 5867 5866 5864 5862 5861
5829 5829 5829 5829 5830 5830 5831 5831 5830 5830 5830 5833 5836 5840 5842 5842 5844 5846 5847 5850 5852 5855 5856 5856 5858 5858 5858 5859 5860 5861 5863 5860 5860 5860 5860 5860 5858 5857 5856 5853 5851 5850 5848
5824 5823 5823 5822 5822 5823 5824 5825 5826 5825 5825 5826 5828 5829 5833 5831 5835 5837 5838 5838 5839 5842 5845 5846 5847 5847 5848 5850 5849 5851 5850 5849 5848 5849 5847 5844 5842 5841 5841 5840 5838 5838 5835
5818 5818 5818 5817 5816 5816 5816 5817 5818 5819 5819 5820 5821 5823 5824 5826 5826 5826 5825 5826 5827 5831 5833 5834 5835 5836 5838 5840 5840 5839 5837 5837 5836 5827 5825 5829 5830 5829 5831 5830 5828 5825 5822
5811 5811 5811 5811 5811 5811 5810 5811 5811 5811 5812 5814 5815 5814 5815 5816 5818 5818 5818 5818 5817 5820 5821 5822 5824 5825 5827 5827 5828 5827 5825 5824 5823 5813 5810 5813 5813 5814 5815 5812 5813 5812 5812
5802 5803 5802 5803 5804 5804 5804 5805 5805 5806 5806 5807 5808 5809 5809 5809 5809 5808 5809 5809 5810 5811 5811 5811 5811 5812 5813 5813 5813 5813 5812 5810 5812 5813 5798 5808 5805 5806 5802 5797 5796 5798 5798
5793 5793 5794 5795 5797 5798 5798 5799 5799 5800 5800 5800 5800 5800 5801 5801 5801 5802 5802 5801 5801 5801 5802 5802 5801 5801 5801 5801 5801 5801 5800 5800 5800 5799 5793 5794 5792 5792 5791 5790 5789 5789 5785
5787 5786 5786 5787 5789 5789 5790 5791 5791 5791 5791 5791 5791 5791 5791 5792 5791 5791 5791 5791 5790 5790 5790 5790 5790 5790 5790 5790 5790 5789 5789 5788 5788 5786 5782 5781 5780 5781 5780 5781 5778 5776 5773
5781 5781 5780 5780 5780 5781 5781 5781 5781 5782 5782 5781 5781 5781 5781 5780 5780 5780 5779 5778 5778 5777 5778 5778 5778 5779 5778 5778 5778 5778 5778 5778 5776 5775 5774 5771 5769 5768 5769 5767 5765 5763 5760
5775 5775 5775 5775 5775 5774 5774 5774 5773 5772 5771 5770 5769 5769 5768 5768 5768 5768 5768 5767 5767 5766 5764 5763 5764 5765 5766 5766 5766 5766 5767 5766 5765 5764 5763 5760 5758 5758 5757 5758 5757 5757 5753
5770 5769 5769 5770 5770 5769 5767 5767 5767 5765 5763 5761 5759 5758 5757 5756 5755 5754 5753 5752 5752 5752 5753 5752 5752 5752 5751 5752 5753 5754 5754 5754 5753 5753 5753 5753 5752 5752 5751 5749 5749 5748 5748
5764 5764 5764 5764 5763 5763 5763 5762 5761 5758 5755 5752 5750 5748 5746 5745 5745 5745 5744 5744 5744 5743 5743 5743 5743 5742 5742 5742 5742 5743 5743 5743 5743 5743 5743 5743 5743 5744 5743 5743 5743 5745 5744
5758 5757 5758 5759 5759 5758 5757 5757 5755 5751 5747 5744 5742 5740 5738 5737 5737 5737 5737 5738 5737 5737 5737 5736 5736 5735 5735 5733 5734 5734 5734 5734 5734 5734 5735 5736 5736 5737 5737 5738 5738 5736 5737
5751 5752 5753 5753 5752 5751 5751 5751 5749 5746 5743 5741 5737 5734 5733 5731 5730 5730 5731 5730 5730 5730 5729 5729 5728 5728 5728 5725 5726 5726 5726 5727 5727 5727 5727 5727 5729 5730 5730 5730 5729 5728 5729
5747 5747 5747 5747 5746 5745 5746 5745 5743 5741 5738 5735 5734 5731 5729 5727 5726 5725 5725 5725 5724 5723 5723 5722 5722 5721 5720 5719 5720 5721 5720 5720 5720 5721 5721 5722 5723 5723 5723 5723 5723 5723 5722
5743 5743 5743 5742 5741 5740 5741 5741 5739 5737 5735 5733 5731 5730 5728 5725 5723 5722 5720 5719 5718 5717 5716 5716 5715 5714 5715 5715 5715 5714 5715 5715 5715 5716 5717 5717 5716 5717 5717 5716 5717 5717 5715
5739 5738 5739 5738 5737 5737 5737 5737 5737 5735 5733 5732 5730 5729 5726 5725 5723 5720 5718 5716 5714 5713 5712 5711 5711 5710 5711 5710 5710 5710 5710 5710 5710 5709 5709 5711 5711 5710 5711 5709 5710 5710 5709